This is the latest recevied weather packets stored in our database for station/object KD5HIA. If no packets are shown the sender has not sent any weather packets the latest 10 day(s).
| Time | Temp. | Humidity | Pressure | Rain* | Wind** | Luminosity | Snow |
|---|---|---|---|---|---|---|---|
| 1777910417 | 23.33° C | 61% | 1012.6 hPa | 0 mm | - | 611 W/m² | - |
| 1777909817 | 22.78° C | 62% | 1013 hPa | 0 mm | - | 642 W/m² | - |
| 1777909217 | 22.22° C | 65% | 1012.9 hPa | 0 mm | - | 595 W/m² | - |
| 1777908617 | 21.67° C | 65% | 1012.8 hPa | 0 mm | - | 572 W/m² | - |
| 1777908017 | 21.67° C | 67% | 1012.9 hPa | 0 mm | - | 528 W/m² | - |
| 1777907417 | 21.11° C | 68% | 1012.7 hPa | 0 mm | - | 440 W/m² | - |
| 1777906818 | 20.56° C | 69% | 1013.1 hPa | 0 mm | - | 425 W/m² | - |
| 1777906217 | 20.56° C | 70% | 1013 hPa | 0 mm | - | 361 W/m² | - |
| 1777905617 | 20° C | 71% | 1012.9 hPa | 0 mm | - | 337 W/m² | - |
| 1777905017 | 20° C | 72% | 1012.9 hPa | 0 mm | - | 306 W/m² | - |
| 1777904417 | 19.44° C | 73% | 1012.7 hPa | 0 mm | - | 265 W/m² | - |
| 1777903817 | 18.89° C | 75% | 1012.9 hPa | 0 mm | - | 151 W/m² | - |
| 1777903217 | 18.89° C | 74% | 1012.8 hPa | 0 mm | - | 250 W/m² | - |
| 1777902617 | 18.33° C | 75% | 1012.8 hPa | 0 mm | - | 226 W/m² | - |
| 1777902017 | 18.33° C | 76% | 1013 hPa | 0 mm | - | 230 W/m² | - |
| 1777901417 | 17.78° C | 78% | 1012.7 hPa | 0 mm | - | 167 W/m² | - |
| 1777900817 | 17.22° C | 78% | 1012.8 hPa | 0 mm | - | 146 W/m² | - |
| 1777900217 | 17.22° C | 78% | 1012.7 hPa | 0 mm | - | 116 W/m² | - |
| 1777899617 | 16.67° C | 79% | 1012.4 hPa | 0 mm | - | 94 W/m² | - |
| 1777899017 | 16.67° C | 79% | 1012.2 hPa | 0 mm | - | 73 W/m² | - |
| 1777898417 | 16.11° C | 79% | 1012.3 hPa | 0 mm | - | 52 W/m² | - |
| 1777897817 | 16.11° C | 79% | 1012.2 hPa | 0 mm | - | 32 W/m² | - |
| 1777897217 | 16.11° C | 79% | 1012.2 hPa | 0 mm | - | 24 W/m² | - |
| 1777896617 | 16.11° C | 79% | 1012.3 hPa | 0 mm | - | 12 W/m² | - |
| 1777896017 | 16.11° C | 79% | 1012.1 hPa | 0 mm | - | 4 W/m² | - |
* Rain latest hour (hover to see other rain measurements)
** Current wind speed in m/s (hover to see current wind gust speed)